Newark Heath, OH

5:15 AM EDT on September 23, 2017 (GMT -0400)
Newark Heath

Weather History for KVTA - October, 2012

Change the Weather History Date:

Tuesday, October 9, 2012

  Actual Average Record
Temperature  
Mean Temperature 45 °F -  
Max Temperature 60 °F 66 °F 88 °F (1939)
Min Temperature 30 °F 44 °F 25 °F (1951)
Degree Days  
Heating Degree Days 20    
Moisture  
Dew Point 33 °F    
Average Humidity 84    
Maximum Humidity 97    
Minimum Humidity 39    
Precipitation  
Precipitation 0.00 in - - ()
Sea Level Pressure  
Sea Level Pressure 30.16 in    
Wind  
Wind Speed 1 mph (SSW)    
Max Wind Speed 10 mph    
Max Gust Speed -    
Visibility 4 miles    
Events Fog    
Averages and records for this station are not official NWS values.
T = Trace of Precipitation, MM = Missing Value Source: NWS Daily Summary

Daily Weather History Graph

Daily Weather History Graph

Search for Another Location

Airport or City:

Trip Planner

Search our weather history database for the weather conditions in past years. The results will help you decide how hot, cold, wet, or windy it might be!

Date:

Astronomy

Oct. 09, 2012 Rise Set
Actual Time 7:34 AM EDT 6:58 PM EDT
Civil Twilight 7:07 AM EDT 7:25 PM EDT
Nautical Twilight 6:36 AM EDT 7:57 PM EDT
Astronomical Twilight 6:04 AM EDT 8:28 PM EDT
Moon 1:10 AM EDT (10/9) 3:25 PM EDT (10/9)
Length of Visible Light 12h 18m
Length of Day
11h 24m
Last Quarter, 37% of the Moon is Illuminated
Oct 9
Last Quarter
Oct 15
New
Oct 21
First Quarter
Oct 29
Full
Nov 6
Last Quarter

Hourly Weather History & Observations

Time (EDT) Temp. Windchill Dew Point Humidity Pressure Visibility Wind Dir Wind Speed Gust Speed Precip Events Conditions
12:54 AM 35.1 °F - 32.0 °F 89% 30.20 in 4.0 mi Calm Calm - N/A   Clear
1:02 AM 35.6 °F - 33.8 °F 93% 30.19 in 1.8 mi Calm Calm - N/A   Clear
1:21 AM 33.8 °F - 32.0 °F 93% 30.18 in 0.5 mi Calm Calm - N/A Fog Fog
1:32 AM 35.6 °F - 32.0 °F 87% 30.18 in 2.0 mi Calm Calm - N/A   Clear
1:39 AM 33.8 °F - 32.0 °F 93% 30.19 in 0.8 mi Calm Calm - N/A   Clear
1:54 AM 34.0 °F - 32.0 °F 92% 30.20 in 0.2 mi Calm Calm - N/A Fog Fog
2:00 AM 33.8 °F - 30.2 °F 87% 30.19 in 1.0 mi Calm Calm - N/A   Clear
2:11 AM 33.8 °F - 32.0 °F 93% 30.19 in 2.5 mi Calm Calm - N/A   Clear
2:19 AM 33.8 °F - 30.2 °F 87% 30.19 in 0.8 mi Calm Calm - N/A   Clear
2:28 AM 33.8 °F - 30.2 °F 87% 30.19 in 2.0 mi Calm Calm - N/A   Clear
2:37 AM 33.8 °F - 30.2 °F 87% 30.18 in 0.8 mi Calm Calm - N/A   Clear
2:54 AM 32.0 °F - 30.0 °F 92% 30.19 in 0.2 mi Calm Calm - N/A Fog Fog
3:02 AM 32.0 °F - 30.2 °F 93% 30.18 in 1.0 mi Calm Calm - N/A   Clear
3:13 AM 32.0 °F 28.7 °F 30.2 °F 93% 30.18 in 3.0 mi WNW 3.5 mph - N/A   Clear
3:30 AM 32.0 °F - 30.2 °F 93% 30.18 in 3.0 mi Calm Calm - N/A   Scattered Clouds
3:33 AM 32.0 °F - 30.2 °F 93% 30.18 in 2.5 mi Calm Calm - N/A   Mostly Cloudy
3:40 AM 32.0 °F - 30.2 °F 93% 30.18 in 4.0 mi Calm Calm - N/A   Mostly Cloudy
3:54 AM 33.1 °F - 30.9 °F 92% 30.19 in 2.5 mi Calm Calm - N/A   Mostly Cloudy
4:01 AM 33.8 °F - 30.2 °F 87% 30.17 in 3.0 mi Calm Calm - N/A   Scattered Clouds
4:04 AM 32.0 °F - 30.2 °F 93% 30.17 in 1.8 mi Calm Calm - N/A   Scattered Clouds
4:06 AM 32.0 °F - 30.2 °F 93% 30.17 in 0.8 mi Calm Calm - N/A   Mist
4:17 AM 32.0 °F - 30.2 °F 93% 30.17 in 1.2 mi Calm Calm - N/A   Scattered Clouds
4:43 AM 30.2 °F - 28.4 °F 93% 30.17 in 0.8 mi Calm Calm - N/A   Clear
4:49 AM 30.2 °F - 28.4 °F 93% 30.17 in 0.2 mi Calm Calm - N/A Fog Light Freezing Fog
4:50 AM 30.9 °F - 28.9 °F 92% 30.18 in 0.2 mi Calm Calm - N/A Fog Light Freezing Fog
5:02 AM 32.0 °F - 28.4 °F 87% 30.17 in 1.0 mi Calm Calm - N/A   Mist
5:05 AM 32.0 °F - 28.4 °F 87% 30.17 in 2.0 mi Calm Calm - N/A   Scattered Clouds
5:15 AM 30.2 °F - 28.4 °F 93% 30.17 in 1.0 mi Calm Calm - N/A   Mist
5:24 AM 30.2 °F - 28.4 °F 93% 30.18 in 2.0 mi Calm Calm - N/A   Clear
5:33 AM 32.0 °F - 28.4 °F 87% 30.17 in 4.0 mi Calm Calm - N/A   Clear
5:51 AM 32.0 °F - 28.4 °F 87% 30.17 in 1.8 mi Calm Calm - N/A   Clear
5:54 AM 30.9 °F - 28.9 °F 92% 30.19 in 1.2 mi Calm Calm - N/A   Clear
5:58 AM 30.2 °F - 28.4 °F 93% 30.17 in 1.0 mi Calm Calm - N/A   Mist
6:15 AM 30.2 °F - 28.4 °F 93% 30.17 in 2.0 mi Calm Calm - N/A   Scattered Clouds
6:25 AM 30.2 °F - 28.4 °F 93% 30.17 in 1.8 mi Calm Calm - N/A   Mostly Cloudy
6:37 AM 30.2 °F - 28.4 °F 93% 30.18 in 0.8 mi Calm Calm - N/A   Mostly Cloudy
6:54 AM 30.9 °F - 28.9 °F 92% 30.20 in 0.5 mi Calm Calm - N/A Fog Light Freezing Fog
7:28 AM 32.0 °F - 30.2 °F 93% 30.19 in 0.2 mi Calm Calm - N/A Fog Fog
7:54 AM 33.1 °F - 30.9 °F 92% 30.22 in 0.2 mi Calm Calm - N/A Fog Fog
8:54 AM 33.1 °F - 32.0 °F 96% 30.23 in 0.2 mi Calm Calm - N/A Fog Fog
9:54 AM 37.9 °F 35.5 °F 37.0 °F 97% 30.22 in 0.2 mi South 3.5 mph - N/A Fog Fog
10:12 AM 39.2 °F - 37.4 °F 93% 30.19 in 0.5 mi Calm Calm - N/A Fog Fog
10:24 AM 41.0 °F - 39.2 °F 93% 30.19 in 1.5 mi Calm Calm - N/A   Overcast
10:32 AM 42.8 °F 41.1 °F 39.2 °F 87% 30.18 in 3.0 mi SW 3.5 mph - N/A   Overcast
10:46 AM 44.6 °F - 41.0 °F 87% 30.18 in 5.0 mi Calm Calm - N/A   Mostly Cloudy
10:54 AM 45.0 °F 43.5 °F 42.1 °F 90% 30.20 in 7.0 mi Variable 3.5 mph - N/A   Scattered Clouds
11:54 AM 52.0 °F - 41.0 °F 66% 30.18 in 10.0 mi SSW 6.9 mph - N/A   Clear
12:54 PM 55.0 °F - 39.0 °F 55% 30.15 in 10.0 mi SW 6.9 mph - N/A   Clear
1:54 PM 57.0 °F - 37.9 °F 49% 30.12 in 10.0 mi SSW 5.8 mph - N/A   Clear
2:54 PM 59.0 °F - 37.0 °F 44% 30.09 in 10.0 mi SSW 6.9 mph - N/A   Clear
3:54 PM 59.0 °F - 37.0 °F 44% 30.06 in 10.0 mi SSE 4.6 mph - N/A   Clear
4:54 PM 60.1 °F - 37.0 °F 42% 30.04 in 10.0 mi South 6.9 mph - N/A   Clear
5:54 PM 59.0 °F - 34.0 °F 39% 30.04 in 10.0 mi SSE 8.1 mph - N/A   Clear
6:54 PM 55.9 °F - 35.1 °F 45% 30.04 in 10.0 mi South 4.6 mph - N/A   Clear
7:54 PM 53.1 °F - 37.0 °F 55% 30.04 in 10.0 mi South 10.4 mph - N/A   Clear
8:54 PM 50.0 °F - 36.0 °F 59% 30.03 in 10.0 mi South 5.8 mph - N/A   Clear
9:54 PM 48.0 °F - 39.0 °F 71% 30.03 in 10.0 mi South 4.6 mph - N/A   Clear
10:54 PM 45.0 °F - 39.0 °F 80% 30.02 in 10.0 mi Calm Calm - N/A   Clear
11:54 PM 39.9 °F - 36.0 °F 86% 30.00 in 10.0 mi Calm Calm - N/A   Clear